CW4869 Weather Reports


Display with metric or nautical units.
time (UTC)temp
F
wind
direction
speed
MPH
gust
MPH
rain 1hr
in
rain 24hr
in
rain mn
in
humidity
%
barometer
mb
20260902222529 77 161 1.0 4.0 0.00 0.11 0.11 90 1010.1
20260902222025 77 152 2.0 5.0 0.00 0.11 0.11 90 1010.1
20260902221614 77 147 3.0 6.0 0.00 0.11 0.11 90 1010.0
20260902221031 77 122 5.0 6.0 0.00 0.11 0.11 90 1010.0
20260902220522 77 117 6.0 6.0 0.00 0.11 0.11 90 1009.9
20260902220125 77 130 6.0 7.0 0.00 0.11 0.11 90 1009.8
20260902215537 76 122 5.0 7.0 0.00 0.11 0.11 90 1009.8
20260902215029 76 138 4.0 6.0 0.00 0.11 0.11 90 1010.0
20260902214531 76 124 3.0 4.0 0.00 0.11 0.11 90 1010.0
20260902214045 76 142 3.0 5.0 0.00 0.11 0.11 91 1010.1
20260902213532 76 148 3.0 6.0 0.00 0.11 0.11 90 1010.1
20260902213024 76 163 4.0 6.0 0.00 0.11 0.11 91 1010.3
20260902212102 76 179 5.0 7.0 0.00 0.11 0.11 90 1010.5
20260902211528 76 171 6.0 7.0 0.00 0.11 0.11 91 1010.5
20260902211040 76 156 5.0 8.0 0.00 0.11 0.11 91 1010.5
20260902210555 76 195 6.0 8.0 0.00 0.11 0.11 91 1010.5
20260902210052 76 208 6.0 8.0 0.00 0.11 0.11 91 1010.5
20260902205537 75 215 4.0 6.0 0.00 0.11 0.11 91 1010.6
20260902205101 75 183 4.0 6.0 0.00 0.11 0.11 91 1010.5
20260902204528 75 191 4.0 6.0 0.00 0.11 0.11 92 1010.5
20260902204036 75 144 4.0 5.0 0.00 0.11 0.11 92 1010.4
20260902203526 76 183 4.0 6.0 0.01 0.11 0.11 92 1010.5
20260902203039 75 187 4.0 8.0 0.01 0.11 0.11 92 1010.5
20260902202529 75 178 6.0 8.0 0.02 0.11 0.11 92 1010.3
20260902202037 75 203 4.0 6.0 0.03 0.11 0.11 92 1010.2
20260902201527 75 201 2.0 6.0 0.08 0.11 0.11 91 1010.0
20260902201039 75 210 4.0 11.0 0.08 0.11 0.11 91 1010.2
20260902200546 75 204 7.0 15.0 0.09 0.11 0.11 91 1010.1
20260902200037 76 181 8.0 18.0 0.09 0.11 0.11 90 1010.1
20260902195552 76 220 13.0 18.0 0.11 0.11 0.11 88 1010.3
20260902195049 78 183 6.0 11.0 0.11 0.11 0.11 87 1010.3
20260902194532 78 179 1.0 2.0 0.11 0.11 0.11 85 1010.1
20260902194029 78 1 0.0 2.0 0.11 0.11 0.11 84 1010.0
20260902193537 79 28 0.0 2.0 0.10 0.10 0.10 83 1009.8
20260902193025 79 1 0.0 2.0 0.10 0.10 0.10 83 1010.9
20260902192534 79 72 1.0 4.0 0.09 0.09 0.09 81 1011.7
20260902192025 80 234 2.0 6.0 0.06 0.06 0.06 81 1012.9
20260902191533 80 344 3.0 7.0 0.03 0.03 0.03 80 1012.9
20260902191041 81 20 3.0 7.0 0.03 0.03 0.03 83 1012.6
20260902190528 82 1 2.0 6.0 0.02 0.02 0.02 84 1011.8
20260902190047 82 20 2.0 6.0 0.02 0.02 0.02 83 1011.6
20260902185535 82 8 2.0 5.0 0.00 0.00 0.00 80 1011.6
20260902185028 82 1 2.0 4.0 0.00 0.00 0.00 80 1011.6
20260902184537 82 342 2.0 4.0 0.00 0.00 0.00 80 1011.1
20260902184024 82 1 1.0 3.0 0.00 0.00 0.00 81 1010.9
20260902183534 82 331 1.0 5.0 0.00 0.00 0.00 81 1010.9
20260902183026 82 269 2.0 6.0 0.00 0.00 0.00 82 1011.1
20260902182533 82 331 3.0 6.0 0.00 0.00 0.00 83 1011.2
20260902182040 82 340 1.0 5.0 0.00 0.00 0.00 84 1011.2
20260902181537 82 277 2.0 8.0 0.00 0.00 0.00 84 1011.2
20260902181046 82 286 4.0 8.0 0.00 0.00 0.00 84 1011.2
20260902180533 82 262 5.0 9.0 0.00 0.00 0.00 85 1011.2
20260902175527 82 278 5.0 8.0 0.00 0.00 0.00 86 1011.2
20260902175039 81 255 5.0 10.0 0.00 0.00 0.00 87 1011.1
20260902174529 80 253 7.0 11.0 0.00 0.00 0.00 88 1011.1
20260902174102 80 256 8.0 11.0 0.00 0.00 0.00 88 1011.3
20260902173546 80 257 9.0 11.0 0.00 0.00 0.00 88 1011.4
20260902173035 80 258 10.0 12.0 0.00 0.00 0.00 88 1011.4
20260902172522 80 258 8.0 11.0 0.00 0.00 0.00 88 1011.4
20260902172029 80 257 7.0 11.0 0.00 0.00 0.00 88 1011.4
20260902171522 80 261 8.0 10.0 0.00 0.00 0.00 88 1011.5
20260902171035 80 252 4.0 7.0 0.00 0.00 0.00 88 1011.5
20260902170525 80 255 5.0 8.0 0.00 0.00 0.00 88 1011.6
20260902170034 80 253 5.0 8.0 0.00 0.00 0.00 88 1011.6
20260902165542 80 261 3.0 4.0 0.00 0.00 0.00 89 1011.5
20260902165059 80 257 2.0 3.0 0.00 0.00 0.00 89 1011.5
20260902164543 80 269 1.0 4.0 0.00 0.00 0.00 89 1011.5
20260902164034 79 209 3.0 5.0 0.00 0.00 0.00 90 1011.4
20260902163525 79 186 3.0 6.0 0.00 0.00 0.00 91 1011.4
20260902163034 79 183 5.0 6.0 0.00 0.00 0.00 91 1011.4
20260902162522 79 179 5.0 6.0 0.00 0.00 0.00 91 1011.4
20260902162037 79 168 3.0 6.0 0.00 0.00 0.00 91 1011.6
20260902161528 79 174 5.0 6.0 0.00 0.00 0.00 92 1011.4
20260902161037 79 196 4.0 5.0 0.00 0.00 0.00 92 1011.5
20260902160527 79 218 2.0 5.0 0.00 0.00 0.00 92 1011.9
20260902155540 79 195 4.0 5.0 0.00 0.00 0.00 92 1011.9
20260902155029 78 196 4.0 6.0 0.00 0.00 0.00 93 1011.9
20260902154539 78 238 5.0 6.0 0.00 0.00 0.00 92 1012.0
20260902154025 78 251 5.0 6.0 0.00 0.00 0.00 92 1012.1
20260902153555 78 264 5.0 9.0 0.00 0.00 0.00 92 1012.1
20260902153027 77 255 7.0 11.0 0.00 0.00 0.00 93 1012.2
20260902152550 77 247 8.0 11.0 0.00 0.00 0.00 92 1012.2
20260902152036 77 255 8.0 10.0 0.00 0.00 0.00 93 1012.2
20260902151523 77 254 7.0 10.0 0.00 0.00 0.00 93 1012.1
20260902151059 77 253 8.0 10.0 0.00 0.00 0.00 93 1012.2
20260902150522 77 254 8.0 11.0 0.00 0.00 0.00 93 1012.3
20260902150032 77 240 8.0 11.0 0.00 0.00 0.00 93 1012.4
20260902145541 77 252 8.0 12.0 0.00 0.00 0.00 93 1012.4
20260902145039 77 253 10.0 12.0 0.00 0.00 0.00 93 1012.4
20260902144554 77 256 9.0 11.0 0.00 0.00 0.00 93 1012.3
20260902144025 76 255 7.0 10.0 0.00 0.00 0.00 93 1012.2
20260902143539 76 257 8.0 10.0 0.00 0.00 0.00 93 1012.1
20260902143103 76 254 6.0 11.0 0.00 0.00 0.00 93 1011.9
20260902142531 76 259 5.0 11.0 0.00 0.00 0.00 93 1012.2
20260902142114 76 247 3.0 11.0 0.00 0.00 0.00 93 1012.3
20260902141528 76 258 9.0 11.0 0.00 0.00 0.00 94 1011.7
20260902141036 76 258 7.0 9.0 0.00 0.00 0.00 94 1011.7
20260902140522 76 269 6.0 9.0 0.00 0.00 0.00 93 1011.8
20260902140035 76 269 6.0 9.0 0.00 0.00 0.00 93 1011.9
20260902135526 76 254 6.0 10.0 0.00 0.00 0.00 93 1011.9
20260902135046 76 258 7.0 10.0 0.00 0.00 0.00 93 1012.0
20260902134532 76 259 7.0 9.0 0.00 0.00 0.00 94 1011.8
20260902134026 76 256 6.0 9.0 0.00 0.00 0.00 94 1011.8
20260902133531 76 259 4.0 9.0 0.00 0.00 0.00 94 1011.9
20260902133040 76 259 7.0 10.0 0.00 0.00 0.00 94 1011.9
20260902132536 76 257 8.0 11.0 0.00 0.00 0.00 94 1012.0
20260902132029 76 252 8.0 12.0 0.00 0.00 0.00 94 1012.0
20260902131536 76 258 9.0 12.0 0.00 0.00 0.00 94 1012.0
20260902131028 76 253 8.0 12.0 0.00 0.00 0.00 94 1011.7
20260902130538 76 250 9.0 12.0 0.00 0.00 0.00 94 1011.6
20260902130056 76 244 8.0 12.0 0.00 0.00 0.00 94 1011.6
20260902125538 76 248 8.0 11.0 0.00 0.00 0.00 94 1011.4
20260902125055 76 258 8.0 14.0 0.00 0.00 0.00 94 1011.3
20260902124524 76 258 11.0 14.0 0.00 0.00 0.00 94 1011.3
20260902124030 76 234 10.0 13.0 0.00 0.00 0.00 94 1011.3
20260902123539 76 243 10.0 13.0 0.00 0.00 0.00 94 1011.3
20260902123028 76 252 8.0 12.0 0.00 0.00 0.00 94 1011.3
20260902122557 76 239 9.0 12.0 0.00 0.00 0.00 94 1011.3
20260902122025 76 246 9.0 14.0 0.00 0.00 0.00 94 1011.3
20260902121536 76 250 11.0 14.0 0.00 0.00 0.00 94 1011.3
20260902121030 76 243 10.0 13.0 0.00 0.00 0.00 94 1011.3
20260902120533 76 247 8.0 11.0 0.00 0.00 0.00 94 1011.3
20260902120044 76 255 6.0 10.0 0.00 0.00 0.00 93 1011.3
20260902115531 76 257 7.0 10.0 0.00 0.00 0.00 93 1011.3
20260902115034 76 240 8.0 9.0 0.00 0.00 0.00 93 1011.1
20260902114543 76 314 6.0 9.0 0.00 0.00 0.00 93 1011.0
20260902114034 76 256 6.0 11.0 0.00 0.00 0.00 93 1010.9
20260902113541 76 241 7.0 13.0 0.00 0.00 0.00 93 1011.0
20260902113030 76 249 11.0 14.0 0.00 0.00 0.00 93 1011.1
20260902112536 76 259 11.0 13.0 0.00 0.00 0.00 93 1011.1
20260902112101 76 297 7.0 14.0 0.00 0.00 0.00 93 1011.1
20260902111551 76 259 9.0 15.0 0.00 0.00 0.00 93 1011.0
20260902111028 76 258 7.0 15.0 0.00 0.00 0.00 93 1011.1
20260902110537 76 246 12.0 19.0 0.00 0.00 0.00 93 1011.2
20260902110046 76 249 13.0 19.0 0.00 0.00 0.00 93 1011.2
20260902105040 76 246 15.0 19.0 0.00 0.00 0.00 93 1011.4
20260902104545 76 247 14.0 19.0 0.00 0.00 0.00 93 1011.4
20260902104037 76 245 16.0 19.0 0.00 0.00 0.00 93 1011.3
20260902103526 76 245 14.0 18.0 0.00 0.00 0.00 93 1011.3
20260902103038 76 255 8.0 12.0 0.00 0.00 0.00 93 1011.1
20260902102544 76 245 8.0 12.0 0.00 0.00 0.00 93 1011.1
20260902101537 76 246 10.0 13.0 0.00 0.00 0.00 93 1011.0
20260902101031 76 242 11.0 13.0 0.00 0.00 0.00 93 1011.3
20260902100522 76 245 11.0 13.0 0.00 0.00 0.00 93 1011.4
20260902100039 76 247 9.0 14.0 0.00 0.00 0.00 93 1011.2
20260902095533 76 238 10.0 14.0 0.00 0.00 0.00 93 1011.3
20260902095024 77 258 10.0 13.0 0.00 0.00 0.00 93 1011.1
20260902094529 77 248 10.0 13.0 0.00 0.00 0.00 93 1011.2
20260902094041 77 241 11.0 13.0 0.00 0.00 0.00 93 1011.3
20260902093556 77 230 10.0 12.0 0.00 0.00 0.00 93 1011.2
20260902093108 77 227 9.0 15.0 0.00 0.00 0.00 93 1011.2
20260902092539 77 233 11.0 15.0 0.00 0.00 0.00 94 1011.1
20260902092032 77 230 11.0 15.0 0.00 0.00 0.00 94 1011.2
20260902091537 77 228 11.0 15.0 0.00 0.00 0.00 94 1011.2
20260902091028 77 229 11.0 14.0 0.00 0.00 0.00 94 1011.2
20260902090537 77 232 8.0 11.0 0.00 0.00 0.00 94 1011.1
20260902090029 77 222 7.0 10.0 0.00 0.00 0.00 94 1010.9
20260902085038 77 228 7.0 11.0 0.00 0.00 0.00 93 1011.0
20260902084525 77 227 7.0 12.0 0.00 0.00 0.00 93 1011.0
20260902084058 77 230 10.0 13.0 0.00 0.00 0.00 94 1011.0
20260902083534 77 233 10.0 14.0 0.00 0.00 0.00 94 1011.0
20260902083027 77 233 11.0 14.0 0.00 0.00 0.00 93 1011.0
20260902082531 77 236 11.0 15.0 0.00 0.00 0.00 93 1011.0
20260902082024 77 238 12.0 16.0 0.00 0.00 0.00 94 1011.1
20260902081531 77 245 12.0 15.0 0.00 0.00 0.00 94 1011.1
20260902081024 77 241 11.0 14.0 0.00 0.00 0.00 94 1011.1
20260902080530 77 237 11.0 16.0 0.00 0.00 0.00 94 1011.1
20260902080024 77 234 12.0 17.0 0.00 0.00 0.00 94 1011.1
20260902075534 77 229 13.0 16.0 0.00 0.00 0.00 94 1011.1
20260902075024 77 232 13.0 16.0 0.00 0.00 0.00 94 1011.0
20260902074532 77 227 12.0 14.0 0.00 0.00 0.00 94 1011.1
20260902074043 77 238 10.0 12.0 0.00 0.00 0.00 94 1011.0
20260902073529 77 229 9.0 11.0 0.00 0.00 0.00 94 1010.9
20260902073028 77 239 8.0 11.0 0.00 0.00 0.00 94 1010.9
20260902072537 77 223 7.0 11.0 0.00 0.00 0.00 94 1011.0
20260902072031 77 223 8.0 11.0 0.00 0.00 0.00 94 1010.9
20260902071535 77 234 8.0 11.0 0.00 0.00 0.00 94 1010.8
20260902071053 78 225 9.0 12.0 0.00 0.00 0.00 94 1010.8
20260902070523 78 227 8.0 11.0 0.00 0.00 0.00 94 1010.9
20260902070033 78 238 8.0 11.0 0.00 0.00 0.00 94 1011.0
20260902065523 78 214 7.0 9.0 0.00 0.00 0.00 94 1010.9
20260902065034 78 223 7.0 9.0 0.00 0.00 0.00 94 1010.8
20260902064523 78 223 7.0 8.0 0.00 0.00 0.00 94 1010.8
20260902064119 78 226 7.0 10.0 0.00 0.00 0.00 93 1010.8
20260902063531 78 219 7.0 10.0 0.00 0.00 0.00 93 1010.9
20260902063043 78 222 7.0 9.0 0.00 0.00 0.00 93 1010.7
20260902062552 78 208 7.0 12.0 0.00 0.00 0.00 93 1010.8
20260902062042 78 229 9.0 12.0 0.00 0.00 0.00 93 1011.0
20260902061532 78 232 10.0 13.0 0.00 0.00 0.00 93 1011.1
20260902061025 78 241 10.0 13.0 0.00 0.00 0.00 93 1011.2
20260902060539 78 236 10.0 13.0 0.00 0.00 0.00 93 1011.3
20260902060059 78 248 11.0 13.0 0.00 0.00 0.00 93 1011.4
20260902055523 78 249 9.0 10.0 0.00 0.00 0.00 92 1011.4
20260902055036 78 244 8.0 10.0 0.00 0.00 0.00 92 1011.3
20260902054525 78 251 8.0 11.0 0.00 0.00 0.00 92 1011.3
20260902054038 78 245 8.0 12.0 0.00 0.00 0.00 92 1011.3
20260902053522 78 243 9.0 13.0 0.00 0.00 0.00 92 1011.3
20260902053027 79 243 10.0 13.0 0.00 0.00 0.00 92 1011.3
20260902052536 79 243 10.0 14.0 0.00 0.00 0.00 92 1011.3
20260902052042 79 248 10.0 14.0 0.00 0.00 0.00 92 1011.4
20260902051528 79 254 11.0 14.0 0.00 0.00 0.00 92 1011.4
20260902051042 79 237 12.0 14.0 0.00 0.00 0.00 92 1011.4
20260902050529 79 247 12.0 16.0 0.00 0.00 0.00 92 1011.4
20260902050100 79 248 13.0 15.0 0.00 0.00 0.00 92 1011.4
20260902045531 79 241 12.0 16.0 0.00 0.00 0.00 92 1011.3
20260902045037 79 234 13.0 16.0 0.00 0.00 0.00 91 1011.3
20260902044526 79 251 13.0 18.0 0.00 0.00 0.00 91 1011.4
20260902044029 79 247 14.0 18.0 0.00 0.00 0.00 91 1011.4
20260902043532 79 247 15.0 17.0 0.00 0.00 0.00 91 1011.4
20260902043043 79 237 13.0 17.0 0.00 0.00 0.00 91 1011.2
20260902042615 80 246 14.0 18.0 0.00 0.00 0.00 90 1011.1
20260902042058 80 245 15.0 20.0 0.00 0.00 0.00 90 1011.0
20260902041525 80 245 16.0 20.0 0.00 0.00 0.00 90 1011.0
20260902041052 80 242 15.0 19.0 0.00 0.00 0.00 90 1011.0
20260902040544 80 235 16.0 22.0 0.00 0.00 0.00 90 1011.0
20260902040035 80 249 17.0 22.0 0.00 0.00 0.00 89 1011.1
20260902035536 80 241 16.0 21.0 0.00 0.00 0.00 89 1011.0
20260902034524 80 237 17.0 20.0 0.00 0.00 0.00 89 1011.1
20260902034102 81 240 16.0 19.0 0.00 0.00 0.00 89 1011.1
20260902033527 81 241 14.0 16.0 0.00 0.00 0.00 89 1011.1
20260902033040 81 238 12.0 16.0 0.00 0.00 0.00 89 1010.8
20260902032529 81 227 13.0 16.0 0.00 0.00 0.00 89 1010.7
20260902032041 81 236 13.0 15.0 0.00 0.00 0.00 89 1010.8
20260902031057 81 245 11.0 14.0 0.00 0.00 0.00 90 1010.9
20260902030522 81 241 11.0 14.0 0.00 0.00 0.00 90 1010.9
20260902030034 81 245 11.0 15.0 0.00 0.00 0.00 90 1010.9
20260902025523 81 234 11.0 15.0 0.00 0.00 0.00 90 1010.9
20260902025103 81 233 13.0 15.0 0.00 0.00 0.00 90 1011.0
20260902024529 80 241 11.0 14.0 0.00 0.00 0.00 91 1011.0
20260902024024 80 236 10.0 13.0 0.00 0.00 0.00 91 1010.9
20260902023534 80 231 11.0 13.0 0.00 0.00 0.00 92 1010.9
20260902023027 80 230 10.0 14.0 0.00 0.00 0.00 92 1010.9
20260902022617 80 235 10.0 14.0 0.00 0.00 0.00 92 1011.0
20260902022058 80 232 6.0 11.0 0.00 0.00 0.00 93 1010.9
20260902021540 80 207 8.0 11.0 0.00 0.00 0.00 93 1010.9
20260902021057 80 206 7.0 9.0 0.00 0.00 0.00 93 1010.9
20260902020532 80 216 6.0 8.0 0.00 0.00 0.00 93 1011.0
20260902020041 80 191 3.0 5.0 0.00 0.00 0.00 92 1011.0
20260902015538 80 174 4.0 6.0 0.00 0.00 0.00 92 1010.9
20260902015031 81 143 5.0 7.0 0.00 0.00 0.00 92 1011.0
20260902014535 81 146 5.0 9.0 0.00 0.00 0.00 92 1011.0
20260902014028 81 126 6.0 9.0 0.00 0.00 0.00 92 1010.9
20260902013539 81 115 6.0 9.0 0.00 0.00 0.00 92 1010.9
20260902013029 81 117 8.0 10.0 0.00 0.00 0.00 91 1010.9
20260902012535 81 105 9.0 11.0 0.00 0.00 0.00 91 1010.9
20260902012052 81 112 8.0 11.0 0.00 0.00 0.00 91 1010.8
20260902011538 81 105 9.0 11.0 0.00 0.00 0.00 91 1010.9
20260902011026 82 107 8.0 10.0 0.00 0.00 0.00 91 1010.9
20260902010534 82 101 7.0 10.0 0.00 0.00 0.00 90 1010.9
20260902010029 82 110 7.0 10.0 0.00 0.00 0.00 91 1010.8
20260902005537 82 107 8.0 10.0 0.00 0.00 0.00 90 1010.8
20260902005044 82 114 7.0 9.0 0.00 0.00 0.00 90 1010.7
20260902004529 82 108 6.0 8.0 0.00 0.00 0.00 89 1010.6
20260902004042 82 105 5.0 6.0 0.00 0.00 0.00 88 1010.6
20260902003533 82 122 4.0 6.0 0.00 0.00 0.00 89 1010.7
20260902003048 82 83 3.0 6.0 0.00 0.00 0.00 89 1010.7
20260902002535 82 79 2.0 4.0 0.00 0.00 0.00 88 1010.6
20260902002027 82 89 2.0 4.0 0.00 0.00 0.00 88 1010.5
20260902001534 82 108 2.0 3.0 0.00 0.00 0.00 88 1010.6
20260902001109 82 72 1.0 3.0 0.00 0.00 0.00 88 1010.6
20260902000525 82 122 1.0 3.0 0.00 0.00 0.00 87 1010.8
20260902000034 82 107 2.0 3.0 0.00 0.00 0.00 87 1010.7
20260901235548 83 113 2.0 3.0 0.00 0.00 0.00 87 1010.8
20260901235035 83 72 1.0 3.0 0.00 0.00 0.00 87 1010.8
20260901234523 83 113 2.0 3.0 0.00 0.00 0.00 87 1010.7
20260901234030 83 108 0.0 2.0 0.00 0.00 0.00 87 1010.7
20260901233024 83 28 1.0 2.0 0.00 0.00 0.00 86 1010.9
20260901232528 83 28 1.0 2.0 0.00 0.00 0.00 86 1010.9
20260901232042 83 1 0.0 1.0 0.00 0.00 0.00 85 1010.9
20260901231531 84 1 0.0 2.0 0.00 0.00 0.00 85 1011.0
20260901231041 84 1 0.0 1.0 0.00 0.00 0.00 84 1010.9
20260901230531 84 20 0.0 2.0 0.00 0.00 0.00 84 1011.0
20260901230041 84 63 0.0 2.0 0.00 0.00 0.00 84 1011.1
20260901225530 85 46 1.0 2.0 0.00 0.00 0.00 84 1011.1
20260901225038 85 35 1.0 3.0 0.00 0.00 0.00 84 1011.1
20260901224552 85 1 1.0 3.0 0.00 0.00 0.00 84 1011.2
20260901224029 86 46 0.0 2.0 0.00 0.00 0.00 83 1011.1
20260901223535 86 13 0.0 2.0 0.00 0.00 0.00 83 1011.1